Time,TemperatureF,DewpointF,PressureIn,WindDirection,WindDirectionDegrees,WindSpeedMPH,WindSpeedGustMPH,Humidity,HourlyPrecipIn,Conditions,Clouds,dailyrainin,SolarRadiationWatts/m^2,SoftwareType,DateUTC
2013-03-06 00:02:00,33.0,24.0,-100.00,WNW,285,10.0,23.0,70,0.00,,,0.51,0.000000,,2013-03-06 06:02:00,
2013-03-06 00:11:00,33.0,24.0,-100.00,WNW,285,10.0,23.0,70,0.00,,,0.51,0.000000,,2013-03-06 06:11:00,
2013-03-06 00:22:00,33.0,24.0,-100.00,WNW,285,10.0,23.0,70,0.00,,,0.51,0.000000,,2013-03-06 06:22:00,
2013-03-06 00:32:00,33.0,24.0,-100.00,WNW,285,10.0,23.0,70,0.00,,,0.51,0.000000,,2013-03-06 06:32:00,
2013-03-06 00:52:00,33.0,24.0,-100.00,West,280,10.0,24.0,68,0.00,,,0.45,0.000000,,2013-03-06 06:52:00,
2013-03-06 01:01:00,33.0,24.0,-100.00,West,280,10.0,24.0,68,0.00,,,0.45,0.000000,,2013-03-06 07:01:00,
2013-03-06 01:11:00,33.0,24.0,-100.00,West,280,10.0,24.0,68,0.00,,,0.45,0.000000,,2013-03-06 07:11:00,
2013-03-06 01:22:00,33.0,24.0,-100.00,West,280,10.0,24.0,68,0.00,,,0.45,0.000000,,2013-03-06 07:22:00,
2013-03-06 01:32:00,33.0,24.0,-100.00,West,280,10.0,24.0,68,0.00,,,0.45,0.000000,,2013-03-06 07:32:00,
2013-03-06 01:52:00,34.0,24.0,-100.00,West,275,10.0,19.0,67,0.00,,,0.42,0.000000,,2013-03-06 07:52:00,
2013-03-06 02:01:00,34.0,24.0,-100.00,West,275,10.0,19.0,67,0.00,,,0.42,0.000000,,2013-03-06 08:01:00,
2013-03-06 02:11:00,34.0,24.0,-100.00,West,275,10.0,19.0,67,0.00,,,0.42,0.000000,,2013-03-06 08:11:00,
2013-03-06 02:21:00,34.0,24.0,-100.00,West,275,10.0,19.0,67,0.00,,,0.42,0.000000,,2013-03-06 08:21:00,
2013-03-06 02:32:00,34.0,24.0,-100.00,West,275,10.0,19.0,67,0.00,,,0.42,0.000000,,2013-03-06 08:32:00,
2013-03-06 02:52:00,32.0,26.0,-100.00,WNW,284,8.0,25.0,77,0.00,,,0.40,0.000000,,2013-03-06 08:52:00,
2013-03-06 03:01:00,32.0,26.0,-100.00,WNW,284,8.0,25.0,77,0.00,,,0.40,0.000000,,2013-03-06 09:01:00,
2013-03-06 03:12:00,32.0,26.0,-100.00,WNW,284,8.0,25.0,77,0.00,,,0.40,0.000000,,2013-03-06 09:12:00,
2013-03-06 03:21:00,32.0,26.0,-100.00,WNW,284,8.0,25.0,77,0.00,,,0.40,0.000000,,2013-03-06 09:21:00,
2013-03-06 03:31:00,32.0,26.0,-100.00,WNW,284,8.0,25.0,77,0.00,,,0.40,0.000000,,2013-03-06 09:31:00,
2013-03-06 04:01:00,33.0,24.0,-100.00,WNW,282,8.0,19.0,69,0.00,,,0.34,0.000000,,2013-03-06 10:01:00,
2013-03-06 04:11:00,33.0,24.0,-100.00,WNW,282,8.0,19.0,69,0.00,,,0.34,0.000000,,2013-03-06 10:11:00,
2013-03-06 04:22:00,33.0,24.0,-100.00,WNW,282,8.0,19.0,69,0.00,,,0.34,0.000000,,2013-03-06 10:22:00,
2013-03-06 04:32:00,33.0,24.0,-100.00,WNW,282,8.0,19.0,69,0.00,,,0.34,0.000000,,2013-03-06 10:32:00,
2013-03-06 04:52:00,33.0,23.0,-100.00,WNW,291,6.0,19.0,66,0.00,,,0.20,0.000000,,2013-03-06 10:52:00,
2013-03-06 05:02:00,33.0,23.0,-100.00,WNW,291,6.0,19.0,66,0.00,,,0.20,0.000000,,2013-03-06 11:02:00,
2013-03-06 05:11:00,33.0,23.0,-100.00,WNW,291,6.0,19.0,66,0.00,,,0.20,0.000000,,2013-03-06 11:11:00,
2013-03-06 05:22:00,33.0,23.0,-100.00,WNW,291,6.0,19.0,66,0.00,,,0.20,0.000000,,2013-03-06 11:22:00,
2013-03-06 05:32:00,33.0,23.0,-100.00,WNW,291,6.0,19.0,66,0.00,,,0.20,0.000000,,2013-03-06 11:32:00,
2013-03-06 05:52:00,33.0,23.0,-100.00,WNW,284,6.0,22.0,65,0.00,,,0.14,0.000000,,2013-03-06 11:52:00,
2013-03-06 06:02:00,33.0,23.0,-100.00,WNW,284,6.0,22.0,65,0.00,,,0.14,0.000000,,2013-03-06 12:02:00,
2013-03-06 06:11:00,33.0,23.0,-100.00,WNW,284,6.0,22.0,65,0.00,,,0.14,0.000000,,2013-03-06 12:11:00,
2013-03-06 06:21:00,33.0,23.0,-100.00,WNW,284,6.0,22.0,65,0.00,,,0.14,0.000000,,2013-03-06 12:21:00,
2013-03-06 06:32:00,33.0,23.0,-100.00,WNW,284,6.0,22.0,65,0.00,,,0.14,0.000000,,2013-03-06 12:32:00,
2013-03-06 06:53:00,33.0,23.0,-100.00,WNW,288,6.0,17.0,67,0.00,,,0.14,1.000000,,2013-03-06 12:53:00,
2013-03-06 07:02:00,33.0,23.0,-100.00,WNW,288,6.0,17.0,67,0.00,,,0.14,1.000000,,2013-03-06 13:02:00,
2013-03-06 07:12:00,33.0,23.0,-100.00,WNW,288,6.0,17.0,67,0.00,,,0.14,1.000000,,2013-03-06 13:12:00,
2013-03-06 07:22:00,33.0,23.0,-100.00,WNW,288,6.0,17.0,67,0.00,,,0.14,1.000000,,2013-03-06 13:22:00,
2013-03-06 07:32:00,33.0,23.0,-100.00,WNW,288,6.0,17.0,67,0.00,,,0.14,1.000000,,2013-03-06 13:32:00,
2013-03-06 07:52:00,33.0,23.0,-100.00,WNW,299,7.0,16.0,67,0.00,,,0.12,24.000000,,2013-03-06 13:52:00,
2013-03-06 08:01:00,33.0,23.0,-100.00,WNW,299,7.0,16.0,67,0.00,,,0.12,24.000000,,2013-03-06 14:01:00,
2013-03-06 08:11:00,33.0,23.0,-100.00,WNW,299,7.0,16.0,67,0.00,,,0.12,24.000000,,2013-03-06 14:11:00,
2013-03-06 08:22:00,33.0,23.0,-100.00,WNW,299,7.0,16.0,67,0.00,,,0.12,24.000000,,2013-03-06 14:22:00,
2013-03-06 08:32:00,33.0,23.0,-100.00,WNW,299,7.0,16.0,67,0.00,,,0.12,24.000000,,2013-03-06 14:32:00,
2013-03-06 09:02:00,34.0,24.0,-100.00,WNW,297,6.0,20.0,67,0.00,,,0.08,65.000000,,2013-03-06 15:02:00,
2013-03-06 09:11:00,34.0,24.0,-100.00,WNW,297,6.0,20.0,67,0.00,,,0.08,65.000000,,2013-03-06 15:11:00,
2013-03-06 09:21:00,34.0,24.0,-100.00,WNW,297,6.0,20.0,67,0.00,,,0.08,65.000000,,2013-03-06 15:21:00,
2013-03-06 09:32:00,34.0,24.0,-100.00,WNW,297,6.0,20.0,67,0.00,,,0.08,65.000000,,2013-03-06 15:32:00,
2013-03-06 09:52:00,35.0,25.0,-100.00,NW,318,4.0,19.0,67,0.00,,,0.06,119.000000,,2013-03-06 15:52:00,
2013-03-06 10:02:00,35.0,25.0,-100.00,NW,318,4.0,19.0,67,0.00,,,0.06,119.000000,,2013-03-06 16:02:00,
2013-03-06 10:11:00,35.0,25.0,-100.00,NW,318,4.0,19.0,67,0.00,,,0.06,119.000000,,2013-03-06 16:11:00,
2013-03-06 10:21:00,35.0,25.0,-100.00,NW,318,4.0,19.0,67,0.00,,,0.06,119.000000,,2013-03-06 16:21:00,
2013-03-06 10:32:00,35.0,25.0,-100.00,NW,318,4.0,19.0,67,0.00,,,0.06,119.000000,,2013-03-06 16:32:00,
2013-03-06 11:01:00,38.0,27.0,-100.00,NW,316,4.0,13.0,64,0.00,,,0.06,262.000000,,2013-03-06 17:01:00,
2013-03-06 11:11:00,38.0,27.0,-100.00,NW,316,4.0,13.0,64,0.00,,,0.06,262.000000,,2013-03-06 17:11:00,
2013-03-06 11:22:00,38.0,27.0,-100.00,NW,316,4.0,13.0,64,0.00,,,0.06,262.000000,,2013-03-06 17:22:00,
2013-03-06 11:32:00,38.0,27.0,-100.00,NW,316,4.0,13.0,64,0.00,,,0.06,262.000000,,2013-03-06 17:32:00,
2013-03-06 12:02:00,39.0,25.0,-100.00,WNW,289,6.0,14.0,57,0.00,,,0.04,404.000000,,2013-03-06 18:02:00,
2013-03-06 12:28:00,39.0,25.0,-100.00,WNW,289,6.0,14.0,57,0.00,,,0.04,404.000000,,2013-03-06 18:28:00,
2013-03-06 12:53:00,38.0,25.0,-100.00,WNW,299,6.0,14.0,60,0.00,,,0.02,313.000000,,2013-03-06 18:53:00,
2013-03-06 13:02:00,38.0,25.0,-100.00,WNW,299,6.0,14.0,60,0.00,,,0.02,313.000000,,2013-03-06 19:02:00,
2013-03-06 13:11:00,38.0,25.0,-100.00,WNW,299,6.0,14.0,60,0.00,,,0.02,313.000000,,2013-03-06 19:11:00,
2013-03-06 13:22:00,38.0,25.0,-100.00,WNW,299,6.0,14.0,60,0.00,,,0.02,313.000000,,2013-03-06 19:22:00,
2013-03-06 13:32:00,38.0,25.0,-100.00,WNW,299,6.0,14.0,60,0.00,,,0.02,313.000000,,2013-03-06 19:32:00,
2013-03-06 14:02:00,39.0,25.0,-100.00,WNW,293,6.0,14.0,56,0.00,,,0.00,285.000000,,2013-03-06 20:02:00,
2013-03-06 14:12:00,39.0,25.0,-100.00,WNW,293,6.0,14.0,56,0.00,,,0.00,285.000000,,2013-03-06 20:12:00,
2013-03-06 14:22:00,39.0,25.0,-100.00,WNW,293,6.0,14.0,56,0.00,,,0.00,285.000000,,2013-03-06 20:22:00,
2013-03-06 14:32:00,39.0,25.0,-100.00,WNW,293,6.0,14.0,56,0.00,,,0.00,285.000000,,2013-03-06 20:32:00,
2013-03-06 15:02:00,41.0,26.0,-100.00,WNW,292,5.0,14.0,54,0.00,,,0.00,434.000000,,2013-03-06 21:02:00,
2013-03-06 15:12:00,41.0,26.0,-100.00,WNW,292,5.0,14.0,54,0.00,,,0.00,434.000000,,2013-03-06 21:12:00,
2013-03-06 15:22:00,41.0,26.0,-100.00,WNW,292,5.0,14.0,54,0.00,,,0.00,434.000000,,2013-03-06 21:22:00,
2013-03-06 15:32:00,41.0,26.0,-100.00,WNW,292,5.0,14.0,54,0.00,,,0.00,434.000000,,2013-03-06 21:32:00,
2013-03-06 16:02:00,43.0,25.0,-100.00,West,278,5.0,12.0,49,0.00,,,0.00,511.000000,,2013-03-06 22:02:00,
2013-03-06 16:11:00,43.0,25.0,-100.00,West,278,5.0,12.0,49,0.00,,,0.00,511.000000,,2013-03-06 22:11:00,
2013-03-06 16:22:00,43.0,25.0,-100.00,West,278,5.0,12.0,49,0.00,,,0.00,511.000000,,2013-03-06 22:22:00,
2013-03-06 16:32:00,43.0,25.0,-100.00,West,278,5.0,12.0,49,0.00,,,0.00,511.000000,,2013-03-06 22:32:00,
2013-03-06 16:52:00,43.0,25.0,-100.00,WNW,298,4.0,12.0,49,0.00,,,0.00,333.000000,,2013-03-06 22:52:00,
2013-03-06 17:01:00,43.0,25.0,-100.00,WNW,298,4.0,12.0,49,0.00,,,0.00,333.000000,,2013-03-06 23:01:00,
2013-03-06 17:11:00,43.0,25.0,-100.00,WNW,298,4.0,12.0,49,0.00,,,0.00,333.000000,,2013-03-06 23:11:00,
2013-03-06 17:21:00,43.0,25.0,-100.00,WNW,298,4.0,12.0,49,0.00,,,0.00,333.000000,,2013-03-06 23:21:00,
2013-03-06 17:32:00,43.0,25.0,-100.00,WNW,298,4.0,12.0,49,0.00,,,0.00,333.000000,,2013-03-06 23:32:00,
2013-03-06 18:02:00,39.0,25.0,-100.00,NNW,337,2.0,10.0,57,0.00,,,0.00,76.000000,,2013-03-07 00:02:00,
2013-03-06 18:11:00,39.0,25.0,-100.00,NNW,337,2.0,10.0,57,0.00,,,0.00,76.000000,,2013-03-07 00:11:00,
2013-03-06 18:21:00,39.0,25.0,-100.00,NNW,337,2.0,10.0,57,0.00,,,0.00,76.000000,,2013-03-07 00:21:00,
2013-03-06 18:32:00,39.0,25.0,-100.00,NNW,337,2.0,10.0,57,0.00,,,0.00,76.000000,,2013-03-07 00:32:00,
2013-03-06 19:01:00,37.0,26.0,-100.00,North,4,1.0,6.0,63,0.00,,,0.00,3.000000,,2013-03-07 01:01:00,
2013-03-06 19:11:00,37.0,26.0,-100.00,North,4,1.0,6.0,63,0.00,,,0.00,3.000000,,2013-03-07 01:11:00,
2013-03-06 19:21:00,37.0,26.0,-100.00,North,4,1.0,6.0,63,0.00,,,0.00,3.000000,,2013-03-07 01:21:00,
2013-03-06 19:31:00,37.0,26.0,-100.00,North,4,1.0,6.0,63,0.00,,,0.00,3.000000,,2013-03-07 01:31:00,
2013-03-06 19:52:00,36.0,26.0,-100.00,NE,37,5.0,10.0,66,0.00,,,0.00,0.000000,,2013-03-07 01:52:00,
2013-03-06 20:01:00,36.0,26.0,-100.00,NE,37,5.0,10.0,66,0.00,,,0.00,0.000000,,2013-03-07 02:01:00,
2013-03-06 20:11:00,36.0,26.0,-100.00,NE,37,5.0,10.0,66,0.00,,,0.00,0.000000,,2013-03-07 02:11:00,
2013-03-06 20:21:00,36.0,26.0,-100.00,NE,37,5.0,10.0,66,0.00,,,0.00,0.000000,,2013-03-07 02:21:00,
2013-03-06 20:32:00,36.0,26.0,-100.00,NE,37,5.0,10.0,66,0.00,,,0.00,0.000000,,2013-03-07 02:32:00,
2013-03-06 21:02:00,34.0,25.0,-100.00,NE,38,2.0,9.0,70,0.00,,,0.00,0.000000,,2013-03-07 03:02:00,
2013-03-06 21:11:00,34.0,25.0,-100.00,NE,38,2.0,9.0,70,0.00,,,0.00,0.000000,,2013-03-07 03:11:00,
2013-03-06 21:21:00,34.0,25.0,-100.00,NE,38,2.0,9.0,70,0.00,,,0.00,0.000000,,2013-03-07 03:21:00,
2013-03-06 21:32:00,34.0,25.0,-100.00,NE,38,2.0,9.0,70,0.00,,,0.00,0.000000,,2013-03-07 03:32:00,
2013-03-06 22:01:00,34.0,26.0,-100.00,North,10,2.0,5.0,73,0.00,,,0.00,0.000000,,2013-03-07 04:01:00,
2013-03-06 22:11:00,34.0,26.0,-100.00,North,10,2.0,5.0,73,0.00,,,0.00,0.000000,,2013-03-07 04:11:00,
2013-03-06 22:21:00,34.0,26.0,-100.00,North,10,2.0,5.0,73,0.00,,,0.00,0.000000,,2013-03-07 04:21:00,
2013-03-06 22:32:00,34.0,26.0,-100.00,North,10,2.0,5.0,73,0.00,,,0.00,0.000000,,2013-03-07 04:32:00,
2013-03-06 22:52:00,34.0,25.0,-100.00,North,354,3.0,10.0,68,0.00,,,0.00,0.000000,,2013-03-07 04:52:00,
2013-03-06 23:02:00,34.0,25.0,-100.00,North,354,3.0,10.0,68,0.00,,,0.00,0.000000,,2013-03-07 05:02:00,
2013-03-06 23:12:00,34.0,25.0,-100.00,North,354,3.0,10.0,68,0.00,,,0.00,0.000000,,2013-03-07 05:12:00,
2013-03-06 23:22:00,34.0,25.0,-100.00,North,354,3.0,10.0,68,0.00,,,0.00,0.000000,,2013-03-07 05:22:00,
2013-03-06 23:32:00,34.0,25.0,-100.00,North,354,3.0,10.0,68,0.00,,,0.00,0.000000,,2013-03-07 05:32:00,